OPS 4682 DEB, 38370

Orbit data source: Space-Track

OPS 4682 DEB, 38370 is space debris in LEO originally from a launch on Sat, 03 Apr 1965 UTC launched from the Air Force Western Test Range (AFWTR). Debris objects in space refer to the collection of defunct objects orbiting the Earth. Examples of debris include non-operational satellites, rocket bodies, and fragments generated from explosions, collisions, or faulty payload assembly.

Loading next visibility...
Identifier
38370, 1965-027BX
Orbit
LEO
Country
Flag of USUS
Related business
Manufacturer
Unknown
Mission
Spacecraft
Bus & Motor
Unknown
Mass
Unknown
Launch date (UTC)
1965-04-03 (61 years ago)
Launch vehicle
Unknown
Launch site
Air Force Western Test Range (AFWTR)
Object type
Payload
Rocket body
Debris
Shape & HBR
Unknown shape, 0.1 m
Radar Cross Section
Small (<0.1 m²)

Expand to show TLE details & history
Last TLE update: 2 days ago

TLE from 2 days ago
0 OPS 4682 DEB
1 38370U 65027BX  26102.73338699  .00001076  00000-0  35065-2 0  9995
2 38370  90.2563  10.4358 0026795  81.3735 279.0421 13.00768975597298
Epoch: 2026-04-12T17:36Z
TLE epoch observation values (Epoch: 2026-04-12T17:36:04.635Z)
Latitude
-0.00012°
Longitude
-94.51762°
Altitude
1,258.797 km
Speed
7.227 km/s
True Right ascension
00h 41m 44s
True Declination
0° 00' 00"
Sunlit
Object was in daylight at epoch
Visualization orbit readout
Latitude
Unknown
Longitude
Unknown
Altitude
Unknown
Speed
Unknown
Apparent Right ascension
Unknown
Apparent Declination
Unknown
Sunlit
N/A
Visualization observer readout
Local Sidereal Time
18:49:01
Azimuth
Unknown
Elevation
Unknown
Doppler factor
Unknown
Orbital elements
Apogee altitude
1,276.657 km
Perigee altitude
1,235.745 km
Semi-major axis
7,634.338 km
Eccentricity
0.00268
Inclination
90.2563°
RAAN
10.4358°
Arg. of periapsis
81.3735°
True anomaly
278.73871°
Mean anomaly
279.0421°
Eccentric anomaly
278.89042°
Mean motion
3.25376 °/min
Orbital period
110.64 mins
BSTAR
0.0035065
Loading maneuver chart data...
Computing Atmospheric mass density...
Loading historical data...
Loading historical data...
Loading historical data...
Loading historical data...
Loading historical data...
Loading historical data...
Loading historical data...

Documentation

Showing up to 5 results
|